Lapse_Rate
5.0 6.5 6.5 6.5 6.5 6.5 6.5 6.5 6.5 6.5 6.5 6.5 6.5 6.5 6.5 5.3 5.1 5.2 6.3 6.2 6.2 6.4 6.2 6.3 6.5 6.5 6.1 5.7 5.3 5.5 4.6 4.3 5.1 5.0 5.0 4.5 4.5 4.6 4.6 4.5 5.5 5.6 5.4 5.9
6.5 6.5 6.5 6.5 6.5 6.5 6.5 6.5 6.5 6.5 6.5 6.5 6.5 6.5 6.5 6.5 6.3 5.9 6.3 6.3 6.3 6.1 6.2 5.7 6.2 6.3 6.0 5.2 5.1 5.1 4.9 4.1 5.2 5.2 5.2 4.4 4.4 4.3 4.3 3.6 4.8 5.2 5.5 5.9
6.5 6.5 6.5 6.5 6.5 6.5 6.5 6.5 6.5 6.5 6.5 6.5 6.5 6.5 6.5 6.5 6.1 6.1 6.2 6.5 6.5 6.0 5.9 5.6 6.2 5.8 5.8 5.1 4.4 4.8 4.7 4.4 5.0 4.6 5.1 4.3 4.1 4.6 4.2 4.9 4.5 5.5 5.3 5.4
6.5 6.5 6.5 6.5 6.5 6.5 6.5 6.5 6.5 6.5 6.5 6.5 6.5 6.5 6.5 6.5 6.5 6.5 6.4 6.4 6.5 6.4 6.1 5.9 5.9 5.6 5.9 4.9 4.6 4.4 4.2 4.4 4.4 4.6 4.9 4.6 5.4 5.1 4.5 6.2 5.3 3.5 4.7 5.0
6.5 6.5 6.5 6.5 6.5 6.5 6.5 6.5 6.5 6.5 6.5 6.5 6.5 6.5 6.5 6.5 6.5 6.5 6.4 6.3 6.5 6.4 6.2 5.8 5.9 6.2 5.9 5.4 4.7 3.9 4.4 4.1 5.0 5.3 4.7 5.1 4.2 5.0 4.4 3.9 3.3 4.7 4.4 5.2
6.5 5.9 6.5 6.5 6.5 6.5 6.5 6.5 6.5 6.5 6.5 6.5 6.5 6.5 6.5 6.5 6.5 6.5 6.2 6.3 6.6 6.6 6.7 6.4 6.3 6.0 6.2 5.6 4.8 4.0 3.8 4.1 4.0 4.5 4.7 4.4 4.6 4.5 3.8 3.9 3.5 3.9 3.5 3.3
6.5 6.5 6.5 6.5 6.5 6.5 6.5 6.5 6.5 6.5 6.5 6.5 6.5 6.5 6.5 6.5 6.5 6.5 6.5 6.0 6.1 6.7 6.7 6.6 6.1 6.6 6.1 5.7 4.9 4.2 3.6 3.8 4.0 4.0 4.2 5.1 4.6 4.4 3.9 4.0 3.4 3.2 3.3 3.2
6.5 6.5 6.5 6.5 6.5 6.5 6.5 6.5 6.5 6.5 6.5 6.5 6.5 6.5 6.5 6.5 5.9 5.6 6.2 5.4 5.2 5.4 6.7 6.4 5.9 6.1 6.0 6.0 5.0 4.3 3.6 3.6 3.9 3.8 4.0 4.4 5.0 4.7 4.6 4.0 4.0 4.6 4.4 4.1
6.5 6.5 6.5 6.5 6.5 6.5 6.5 6.5 6.5 6.5 6.5 6.5 6.5 6.5 6.5 6.5 6.5 6.4 5.8 5.2 3.5 4.8 4.8 5.6 5.9 5.4 5.4 5.6 4.7 4.5 3.5 3.7 3.6 3.9 3.8 4.0 4.3 5.1 4.8 3.5 3.9 4.0 4.2 4.1
6.5 6.5 6.5 6.5 6.5 6.5 6.5 6.5 6.5 6.5 6.5 6.5 6.5 6.5 6.5 6.5 6.5 6.5 6.5 5.5 5.5 3.4 4.7 7.8 6.5 5.4 4.4 5.0 4.9 4.6 3.1 3.2 3.4 3.6 4.0 4.1 4.0 4.3 4.6 3.3 4.0 3.8 4.4 3.8
6.5 6.5 6.5 6.5 6.5 6.5 6.5 6.5 6.5 6.5 6.5 6.5 6.5 6.5 6.5 6.5 6.5 6.5 6.5 5.6 5.8 5.5 5.7 6.6 6.2 5.9 4.2 4.4 5.0 4.6 3.5 3.5 3.7 3.7 3.7 4.0 4.1 3.9 4.2 4.7 3.8 3.1 4.6 3.4
6.5 6.5 6.5 6.5 6.5 6.5 6.5 6.5 6.5 6.5 6.5 6.5 6.5 6.5 6.5 6.5 6.5 6.5 6.4 6.1 6.1 6.5 6.6 7.1 5.9 5.7 5.5 4.1 4.9 4.6 3.2 3.5 3.3 3.6 3.6 3.5 3.9 4.0 3.7 4.4 4.7 4.8 3.6 3.6
6.5 6.5 6.5 6.5 6.5 6.5 6.5 6.5 6.5 6.5 6.5 6.5 6.5 6.5 6.5 6.5 6.5 6.2 6.2 6.0 5.6 4.5 1.8 5.6 5.8 5.7 5.5 4.6 4.3 4.8 3.8 3.0 3.2 3.5 3.7 3.4 3.4 4.0 3.8 3.3 4.0 4.5 4.3 2.8
6.1 6.5 6.5 6.5 6.5 6.5 6.5 6.5 6.5 6.5 6.5 6.5 6.5 6.5 6.5 6.5 6.5 6.5 5.5 4.4 4.3 3.1 2.2 1.1 6.0 5.7 5.2 5.1 4.1 4.2 4.3 3.5 3.0 3.2 3.5 3.3 3.2 3.5 3.8 3.7 3.5 3.4 4.3 4.2
6.5 6.5 6.5 6.5 6.5 6.5 6.5 6.5 6.5 6.5 6.5 6.5 6.5 6.5 6.5 6.5 6.5 6.3 3.1 3.1 3.8 3.9 1.7 0.8 4.9 5.2 4.3 4.6 3.3 3.6 4.4 4.7 3.4 3.1 3.1 3.1 3.0 3.3 3.6 3.8 3.3 3.7 3.9 4.7
6.5 6.5 6.5 6.5 6.5 6.5 6.5 6.5 6.5 6.5 6.5 6.5 6.5 6.5 6.5 6.4 4.3 5.3 4.9 5.6 4.6 3.8 3.2 1.6 1.6 2.9 3.2 3.3 3.1 3.0 3.8 5.4 4.6 3.4 2.9 3.2 2.5 3.0 3.4 3.7 3.6 3.3 4.5 4.8
6.5 6.5 6.5 6.5 6.5 6.5 6.5 6.5 6.5 6.5 6.5 6.5 6.5 6.5 6.5 6.5 6.5 6.1 4.5 3.0 5.2 3.5 2.9 1.7 0.7 0.8 1.2 2.0 2.5 2.1 2.9 4.9 4.7 3.9 3.5 3.5 2.9 2.7 3.3 3.7 4.0 4.3 5.1 5.0
6.5 6.5 6.5 6.5 6.5 6.5 6.5 6.5 6.5 6.5 6.5 6.5 6.5 6.5 6.5 6.5 3.8 3.7 3.2 3.7 5.1 4.4 3.3 1.8 2.4 0.1 -0.5 -0.1 2.2 2.4 3.0 4.1 4.2 3.7 3.6 3.3 3.0 3.6 3.3 4.3 4.5 5.1 5.7 4.4
6.5 6.5 6.5 6.5 6.5 6.5 6.5 6.5 6.5 6.5 6.5 6.5 6.5 6.5 6.5 4.1 4.5 4.3 2.5 3.1 3.1 4.6 3.8 2.5 1.6 1.6 0.7 0.7 1.4 2.1 3.1 3.1 4.0 3.2 3.6 3.3 3.0 3.5 3.5 4.3 4.8 4.9 4.6 4.8
6.5 6.5 6.5 6.5 6.5 6.5 6.5 6.5 6.4 6.5 6.5 6.5 6.5 6.5 6.5 6.1 6.5 6.5 4.6 5.1 3.7 2.1 2.7 2.0 2.9 2.5 0.7 0.2 1.4 2.0 2.7 3.7 3.5 3.9 3.3 3.5 3.4 3.5 3.3 4.4 4.2 4.1 3.8 4.3
6.5 6.5 6.5 6.5 6.5 6.5 6.5 6.5 6.0 6.5 6.5 6.5 5.4 5.6 5.9 6.5 5.5 3.8 4.8 3.8 4.1 1.7 1.6 1.9 1.2 1.6 -0.8 -0.6 1.7 1.9 2.9 3.4 3.0 3.6 2.5 3.0 3.3 3.4 3.5 3.9 4.1 3.6 3.0 3.2
6.5 6.5 6.5 6.5 6.5 6.5 6.5 6.4 6.5 6.5 4.9 5.0 4.6 4.8 4.5 5.0 4.9 5.0 2.6 2.3 2.4 2.5 2.3 2.4 0.6 0.2 0.7 -1.9 1.1 1.0 1.6 1.3 1.3 2.4 2.9 2.8 2.7 3.5 3.5 3.7 3.3 2.0 2.9 3.2
6.5 6.5 6.5 6.5 6.5 6.5 5.3 5.9 5.0 4.8 4.5 5.6 6.3 6.7 5.8 6.2 6.5 4.0 3.1 3.4 4.5 4.6 3.4 3.0 1.6 -0.1 -0.6 -1.2 0.1 -0.1 -1.1 0.9 2.6 2.8 2.6 3.2 4.0 4.3 4.1 2.8 1.6 2.3 3.1 3.4
6.5 6.5 6.5 6.5 6.5 6.5 5.6 2.8 2.8 5.3 6.1 6.0 5.2 4.2 4.0 3.4 3.1 2.5 2.4 2.8 3.3 3.1 2.3 1.7 1.2 0.3 0.1 0.3 -0.4 -0.6 1.5 2.4 2.9 2.5 3.3 3.0 3.8 3.3 3.0 2.7 3.2 3.3 4.2 4.2
6.5 6.5 6.5 6.5 6.5 6.5 6.4 4.7 5.6 6.1 5.6 5.0 5.8 6.4 5.6 3.5 4.1 2.8 2.1 2.0 3.1 2.9 2.7 2.3 1.7 2.0 1.7 1.5 1.7 2.3 2.3 2.9 3.4 3.8 3.0 2.9 2.5 0.7 -0.9 -2.4 0.8 3.2 0.6 2.7
6.5 6.5 6.5 6.5 6.5 6.6 6.5 6.3 4.8 5.0 6.4 5.5 5.7 6.2 6.1 5.5 5.2 4.4 4.0 3.5 3.3 3.0 2.7 2.9 3.4 3.3 3.3 3.0 2.9 3.0 2.9 1.5 1.0 1.0 1.2 1.5 1.1 0.4 -0.5 -0.3 -1.4 -4.5 -4.8 -5.6
Wind_Speed
10 8 16 13 15 13 14 15 13 5 11 7 4 12 16 10 6 11 21 20 18 18 14 15 15 16 16 15 15 14 10 13 11 7 7 4 4 3 3 6 11 13 14 12
10 19 12 14 12 18 21 18 19 12 8 9 16 16 16 15 17 13 19 21 21 19 18 16 16 17 18 16 16 16 13 12 12 9 7 4 4 4 3 3 9 15 13 14
17 9 18 18 19 19 23 20 15 10 5 7 7 11 11 12 13 14 15 23 22 22 21 18 20 18 16 18 17 17 15 13 13 11 7 3 2 2 2 3 3 8 13 9
16 18 19 22 22 18 20 21 21 15 15 8 13 8 15 15 19 16 19 22 22 22 21 21 22 18 20 17 18 18 15 14 11 11 10 7 6 5 4 8 8 5 12 11
19 19 21 20 24 19 23 13 18 18 7 14 12 3 8 18 17 21 22 23 23 23 24 23 22 24 20 20 19 18 18 15 15 12 10 9 6 6 4 3 7 8 7 13
17 13 19 20 15 20 15 15 20 15 6 4 16 9 8 9 23 23 19 22 27 24 23 22 25 22 20 19 20 19 20 18 16 15 13 10 9 8 5 3 6 8 6 5
20 23 16 22 17 16 20 15 12 10 10 5 20 15 13 13 10 26 23 19 19 25 23 23 23 22 22 21 21 20 21 19 18 18 15 15 9 9 8 7 6 7 5 3
14 17 22 15 25 15 18 17 13 10 11 9 7 10 10 16 14 17 23 17 10 7 23 24 23 24 24 23 23 23 23 21 20 19 18 15 14 7 7 7 5 7 8 7
14 19 8 23 17 20 8 20 14 6 10 6 7 9 6 19 7 12 16 15 10 13 12 23 23 21 23 24 23 24 24 22 21 21 17 16 14 13 9 8 7 6 6 8
16 7 21 18 22 17 18 6 14 12 15 18 15 9 7 18 14 14 12 10 6 7 14 18 22 22 23 26 22 23 25 26 24 22 18 16 16 14 11 7 9 8 7 8
25 20 18 19 18 22 8 17 10 7 14 9 8 14 6 10 20 19 20 19 19 20 21 23 24 24 22 24 23 22 22 24 22 21 19 18 16 16 13 12 9 8 9 10
24 17 17 24 15 23 24 14 11 9 5 5 10 15 8 7 23 27 24 18 18 25 29 29 21 22 21 24 24 24 21 23 23 22 20 18 16 15 15 16 14 13 10 13
16 20 12 15 17 20 24 20 15 13 5 15 5 12 17 14 14 17 19 14 12 15 10 22 20 20 21 21 23 23 23 23 23 21 20 18 17 16 17 17 13 14 14 12
8 20 28 20 19 5 7 22 19 19 16 10 23 9 15 5 8 14 18 13 7 7 10 10 23 21 21 21 22 23 24 23 22 22 21 19 18 18 18 16 16 11 14 14
4 15 21 27 16 16 25 14 26 25 21 17 14 16 14 14 10 10 9 7 8 8 9 9 18 17 21 20 20 21 21 22 22 21 21 21 18 18 17 16 16 17 12 14
10 8 11 10 20 27 20 19 24 26 24 21 16 17 5 8 7 8 9 20 6 7 9 7 11 17 17 16 16 20 21 21 21 21 22 19 18 17 17 16 15 15 15 13
9 4 4 9 7 4 11 30 22 13 18 19 19 12 7 9 4 9 11 14 18 13 9 11 10 12 12 17 21 21 22 21 21 21 19 19 18 18 18 16 15 14 16 12
17 15 9 5 7 11 4 10 18 15 11 10 12 13 11 11 8 8 5 9 3 7 10 10 13 9 9 10 16 20 19 21 21 20 19 18 18 18 17 16 16 13 12 10
16 11 7 6 9 3 7 9 4 7 12 8 5 9 10 9 6 7 10 9 10 14 6 5 6 6 10 11 15 17 18 19 20 18 20 19 19 18 17 17 15 11 10 9
15 12 10 3 8 19 4 5 11 7 6 3 3 7 9 5 2 4 3 4 6 10 8 11 8 5 9 9 14 17 18 16 18 19 19 18 17 18 17 16 14 10 12 11
4 5 13 3 4 3 3 10 13 7 7 5 9 8 10 6 4 5 2 5 2 6 10 11 10 9 10 9 13 16 17 19 17 14 11 14 15 16 16 15 12 12 12 11
4 5 7 6 4 5 3 3 3 3 6 7 7 7 7 6 6 6 9 9 9 9 9 6 5 6 6 10 15 15 16 13 11 12 12 13 15 13 12 15 10 10 10 9
2 1 5 5 2 3 7 7 1 1 7 5 4 2 5 4 2 7 8 9 7 7 5 5 5 8 6 5 10 14 11 14 15 15 15 14 13 13 13 12 10 8 8 8
8 13 5 9 12 18 5 6 5 7 7 7 9 12 14 14 14 10 10 8 8 7 8 6 7 8 7 6 9 12 12 15 17 17 15 13 14 12 10 7 8 9 8 7
4 6 9 6 12 19 18 23 10 5 14 15 13 13 13 16 13 12 10 10 8 8 7 6 7 6 7 11 12 13 17 19 17 16 12 12 11 11 9 7 5 7 4 2
3 3 4 3 11 4 8 16 29 11 16 14 11 15 14 14 11 12 10 8 10 8 7 7 7 8 8 11 13 14 14 15 16 15 11 9 9 8 8 9 8 17 10 9
Wind_Direction
220 213 228 222 216 236 253 250 260 183 127 94 13 165 196 205 186 195 174 176 181 189 193 181 176 167 168 170 170 174 166 163 171 171 171 171 189 214 212 185 198 194 193 180
217 225 226 240 228 228 249 258 262 26 163 119 150 197 237 170 219 185 188 179 181 182 189 179 184 175 173 174 173 176 176 156 171 173 173 168 178 216 208 143 173 175 181 186
217 224 215 227 237 220 237 244 257 155 287 302 211 211 233 233 194 194 220 181 184 183 186 182 184 181 175 177 174 176 175 165 169 160 170 186 164 249 187 192 173 206 198 185
225 222 220 218 235 224 232 235 250 172 190 192 196 215 218 218 209 210 219 186 187 188 186 184 184 182 180 179 175 174 172 167 165 163 172 183 190 195 205 202 200 192 186 188
225 208 224 220 222 226 238 241 248 252 157 179 248 342 220 213 217 221 202 189 191 188 188 186 186 187 183 175 177 172 174 169 175 180 173 192 187 196 210 186 173 177 183 180
232 227 224 233 226 223 241 238 254 260 215 203 194 174 269 180 191 218 197 190 190 192 189 187 189 184 186 177 174 172 174 179 175 183 191 192 187 199 203 181 152 157 169 167
236 236 228 223 227 217 217 231 241 251 245 211 203 202 213 222 192 189 196 198 191 188 189 191 186 188 186 181 176 175 176 182 180 184 190 200 195 199 192 172 166 160 167 160
223 237 230 220 218 219 212 217 227 224 232 250 205 201 216 218 192 174 185 182 183 190 188 190 189 189 187 185 180 177 180 182 185 187 193 196 200 204 206 185 169 181 178 177
207 235 228 228 237 214 229 215 225 253 256 257 227 264 218 211 162 151 156 176 199 219 188 192 191 187 186 185 182 181 180 184 186 189 193 197 196 202 208 186 186 180 179 176
242 245 226 243 224 239 214 203 217 229 235 248 254 246 241 189 172 177 179 169 192 223 200 185 198 188 186 186 183 181 179 184 186 190 192 196 197 198 199 183 195 185 187 159
222 242 259 227 213 215 217 222 229 198 222 231 242 252 250 188 179 170 181 192 179 209 231 218 199 189 182 183 182 181 180 183 187 190 192 195 196 196 196 203 195 183 187 163
206 222 239 251 263 206 216 208 199 222 287 248 238 254 289 171 187 186 188 192 194 199 213 207 188 188 176 180 180 182 178 183 188 189 190 195 193 192 194 204 203 201 191 177
201 213 224 250 259 253 213 211 207 221 185 236 221 246 252 251 141 183 198 216 225 213 188 203 188 180 180 177 180 181 180 185 187 187 190 190 192 194 198 202 198 196 196 181
285 206 214 222 234 242 225 207 202 200 224 228 239 253 279 199 196 176 176 181 244 245 195 162 186 180 179 180 179 182 187 183 184 185 189 191 192 195 199 198 199 190 193 189
241 248 211 215 212 222 240 236 206 210 210 212 233 229 232 242 202 221 177 185 223 236 190 152 169 169 177 181 182 185 187 187 183 186 190 192 192 195 197 198 196 201 194 195
334 284 181 195 207 221 240 240 241 214 215 229 234 249 184 253 220 189 212 190 163 216 153 188 153 167 173 176 185 183 186 188 187 188 194 189 190 190 194 195 196 195 201 198
282 341 278 205 158 237 263 237 245 251 218 208 220 223 235 260 236 228 229 218 188 216 208 186 188 176 169 180 187 184 186 184 187 194 190 191 190 190 192 191 192 191 195 187
263 283 275 152 127 212 230 202 225 239 261 225 206 198 203 206 220 167 200 171 277 261 216 205 184 184 182 174 184 188 180 184 188 192 192 190 191 190 187 188 189 184 185 168
241 259 275 162 196 301 284 271 226 208 254 244 243 215 190 203 189 238 174 178 183 244 206 173 197 190 181 168 174 177 179 183 186 187 190 189 188 186 184 186 180 166 158 154
244 246 249 169 186 219 108 255 270 321 275 355 189 217 213 164 149 272 35 105 214 191 187 177 236 181 182 195 167 168 180 179 187 193 190 183 182 180 177 172 163 146 151 154
256 265 247 161 204 266 194 222 275 250 251 49 79 75 70 87 163 194 7 345 309 199 203 195 199 189 188 188 166 172 179 185 190 187 160 165 169 165 160 151 145 148 156 161
63 9 268 205 163 234 55 331 62 211 86 50 55 72 85 79 48 18 52 50 64 63 33 32 154 176 197 168 167 175 181 178 140 134 140 141 141 144 142 135 138 161 156 154
128 265 299 329 156 314 24 120 68 65 84 65 353 101 107 106 106 82 77 55 48 55 48 42 95 79 38 134 166 164 159 135 130 125 131 132 127 131 132 129 135 130 120 123
15 32 307 329 5 344 223 141 292 58 62 40 41 51 79 76 66 53 54 38 64 46 37 71 84 100 98 83 104 120 121 120 119 120 123 119 115 115 112 122 116 116 121 130
67 337 315 279 4 344 7 349 286 170 91 70 48 57 67 79 64 70 55 44 52 51 27 46 83 73 84 103 106 114 121 120 117 114 116 115 112 112 104 78 86 118 72 125
89 59 339 332 325 297 322 337 1 47 86 87 72 64 55 60 69 66 60 52 63 56 50 47 44 78 91 101 105 102 96 116 119 120 127 130 132 122 118 113 86 41 54 66